Flag Weather past 2 weeks in Detmold, North Rhine-Westphalia, Germany

Now
37 °F

Sunny.


Feels Like: 33 °F
Forecast: 35 / 42 °F
Wind: 6 mph from East

Location: Bad Lippspringe

Current Time: Nov 26, 2014 at 11:27:17 AM

Latest Report: Nov 26, 2014 at 11:00 AM


Visibility: N/A

Pressure: 30.12 "Hg

Humidity: 81%

Dew point: 32 °F

Location of DetmoldLocation

Historic Weather in Detmold — Graph

°F

Detmold temperature yesterday

Maximum temperature yesterday: 48 °F (at 1:00 PM)
Minimum temperature yesterday: 32 °F (at 6:00 AM)
Average temperature yesterday: 38 °F

Past Weeks' High & Low Weather Summary

 TemperatureHumidityPressure
High57 °F (Nov 12, 3:00 PM)100% (Nov 25, 6:00 AM)30.37 "Hg (Nov 25, 6:00 AM)
Low32 °F (Nov 25, 6:00 AM)65% (Nov 25, 2:00 PM)29.50 "Hg (Nov 16, 6:00 AM)
Average46 °F85%29.97 "Hg
* Reported Nov 11 10:00 AM — Nov 26 10:00 AM, Detmold, Weather by CustomWeather, © 2014

Note: Actual official high and low records may vary slightly from our data, if they occured in-between our weather recording intervals... More about our weather records

Advertising

Detmold weather history for previous 24 hours

 ConditionsComfort  
Time TempWeatherWind HumidityBarometerVisibility
10:00 AM
Nov 26
37 °FPassing clouds.5 mph82%30.12 "HgN/A
9:00 AM37 °FPassing clouds.3 mph82%30.12 "HgN/A
8:00 AM36 °FClear.6 mph84%30.13 "HgN/A
7:00 AM37 °FPassing clouds.5 mph84%30.13 "HgN/A
6:00 AM39 °FOvercast.5 mph81%30.14 "HgN/A
5:00 AM40 °FOvercast.8 mph81%30.14 "HgN/A
4:00 AM40 °FOvercast.6 mph82%30.16 "HgN/A
3:00 AM40 °FOvercast.6 mph82%30.17 "HgN/A
2:00 AM40 °FOvercast.5 mph83%30.19 "HgN/A
1:00 AM40 °FOvercast.5 mph85%30.21 "HgN/A
12:00 AM40 °FOvercast.5 mph85%30.23 "HgN/A
11:00 PM
Nov 25
39 °FPassing clouds.6 mph86%30.24 "HgN/A
10:00 PM40 °FClear.8 mph87%30.24 "HgN/A
9:00 PM41 °FClear.8 mph85%30.24 "HgN/A
8:00 PM41 °FClear.8 mph85%30.25 "HgN/A
7:00 PM42 °FPassing clouds.7 mph82%30.26 "HgN/A
6:00 PM40 °FPassing clouds.1 mph85%30.27 "HgN/A
5:00 PM42 °FPassing clouds.2 mph82%30.28 "HgN/A
4:00 PM44 °FSunny.1 mph75%30.28 "HgN/A
3:00 PM46 °FPassing clouds.3 mph72%30.29 "HgN/A
2:00 PM48 °FPassing clouds.2 mph65%30.30 "HgN/A
1:00 PM48 °FSunny.2 mph72%30.32 "HgN/A
12:00 PM46 °FSunny.5 mph77%30.33 "HgN/A
11:00 AM44 °FSunny.1 mph86%30.35 "HgN/A
Weather by CustomWeather, © 2014

See weather overviewHow to use our weather pages